This is the latest recevied weather packets stored in our database for station/object K3RUP-1. If no packets are shown the sender has not sent any weather packets the latest 10 day(s).
| Time | Temp. | Humidity | Pressure | Rain* | Wind** | Luminosity | Snow |
|---|---|---|---|---|---|---|---|
| 1777594940 | 15° C | 59% | 1010.8 hPa | 0 mm | - | 0 W/m² | - |
| 1777594636 | 15° C | 57% | 1010.8 hPa | 0 mm | - | 0 W/m² | - |
| 1777594333 | 15.56° C | 56% | 1010.5 hPa | 0 mm | - | 0 W/m² | - |
| 1777594029 | 15.56° C | 56% | 1010.2 hPa | 0 mm | - | 0 W/m² | - |
| 1777593724 | 16.11° C | 57% | 1010 hPa | 0 mm | - | 0 W/m² | - |
| 1777593421 | 16.11° C | 54% | 1009.9 hPa | 0 mm | - | 0 W/m² | - |
| 1777593120 | 16.11° C | 54% | 1009.7 hPa | 0 mm | - | 2 W/m² | - |
| 1777592819 | 16.11° C | 54% | 1009.7 hPa | 0 mm | - | 4 W/m² | - |
| 1777592516 | 16.67° C | 56% | 1009.5 hPa | 0 mm | - | 6 W/m² | - |
| 1777592211 | 16.67° C | 54% | 1009.5 hPa | 0 mm | - | 11 W/m² | - |
| 1777591908 | 16.67° C | 54% | 1009.2 hPa | 0 mm | - | 16 W/m² | - |
| 1777591604 | 17.22° C | 53% | 1009.3 hPa | 0 mm | - | 18 W/m² | - |
| 1777591300 | 16.67° C | 52% | 1009 hPa | 0 mm | - | 21 W/m² | - |
| 1777590996 | 17.22° C | 53% | 1009.1 hPa | 0 mm | - | 23 W/m² | - |
| 1777590691 | 17.22° C | 51% | 1009.2 hPa | 0 mm | - | 21 W/m² | - |
| 1777590388 | 17.22° C | 52% | 1009 hPa | 0 mm | - | 19 W/m² | - |
| 1777590085 | 17.22° C | 52% | 1008.9 hPa | 0 mm | - | 23 W/m² | - |
| 1777589782 | 17.78° C | 51% | 1008.9 hPa | 0 mm | - | 31 W/m² | - |
| 1777589481 | 17.78° C | 51% | 1009 hPa | 0 mm | - | 39 W/m² | - |
| 1777589176 | 18.33° C | 50% | 1008.7 hPa | 0 mm | - | 45 W/m² | - |
| 1777588872 | 18.33° C | 48% | 1008.5 hPa | 0 mm | - | 53 W/m² | - |
| 1777588568 | 17.78° C | 48% | 1008.3 hPa | 0 mm | - | 55 W/m² | - |
| 1777588263 | 18.33° C | 49% | 1008.2 hPa | 0 mm | - | 57 W/m² | - |
| 1777587959 | 18.33° C | 48% | 1008.3 hPa | 0 mm | - | 62 W/m² | - |
| 1777587655 | 18.33° C | 46% | 1008.1 hPa | 0 mm | - | 63 W/m² | - |
* Rain latest hour (hover to see other rain measurements)
** Current wind speed in m/s (hover to see current wind gust speed)